User: anonymous
Location: Oshawa
(43.9000°N, 78.8670°W)
Time: 00:31:49
(UTC-04:00)
Language:

CZ-4C R/B - Orbit

View from above orbital plane
View from above orbital plane
View from above satellite
View from above satellite

Ground track
Ground track

The orbit data is extracted from the following two-line orbital elements,

1 32290U 07055B   14110.23957803  .00013289  00000-0  53522-3 0  8360
2 32290 097.5784 184.4580 0089019 251.5079 165.3327 15.21337081355465
Epoch (UTC): 20 April 2014 05:44:59
Eccentricity: 0.0089019
inclination: 97.5784°
perigee height: 440 km
apogee height: 563 km
right ascension of ascending node: 184.4580°
argument of perigee: 251.5079°
revolutions per day: 15.21337081
mean anomaly at epoch: 165.3327°
orbit number at epoch: 35546

The dashed part of the orbit path shows where the satellite is in the earth's shadow,  

DLR